timestamp,wind_dir_avg,wind_spd_avg,wind_spd_max_dir,wind_spd_gust,battery_voltage,lat,long
2022-11-08 00:04:00+00:00,243.0,8.14,260.0,11.73,12.41,47.59359,-54.27349
2022-11-08 00:14:00+00:00,252.0,9.72,259.0,13.22,12.41,47.59359,-54.27349
2022-11-08 00:24:00+00:00,248.0,11.66,244.0,13.56,12.41,47.59359,-54.27349
2022-11-08 00:34:00+00:00,238.0,9.74,244.0,11.65,12.41,47.59359,-54.27349
2022-11-08 00:44:00+00:00,238.0,10.81,245.0,12.46,12.41,47.59359,-54.27349
2022-11-08 00:54:00+00:00,234.0,9.91,236.0,10.99,12.41,47.59359,-54.27349
2022-11-08 01:04:00+00:00,237.0,9.95,239.0,11.46,12.41,47.59359,-54.27349
2022-11-08 01:14:00+00:00,227.0,10.11,221.0,11.71,12.33,47.59359,-54.27349
2022-11-08 01:24:00+00:00,224.0,10.59,223.0,12.96,12.33,47.59359,-54.27349
2022-11-08 01:34:00+00:00,226.0,11.2,216.0,14.16,12.33,47.59359,-54.27349
2022-11-08 01:44:00+00:00,227.0,10.05,219.0,12.11,12.33,47.59359,-54.27349
2022-11-08 01:54:00+00:00,234.0,9.43,237.0,12.13,12.33,47.59359,-54.27349
2022-11-08 02:04:00+00:00,236.0,10.68,234.0,12.82,12.33,47.59359,-54.27349
2022-11-08 02:14:00+00:00,231.0,9.95,235.0,11.46,12.33,47.59359,-54.27349
2022-11-08 02:24:00+00:00,230.0,10.33,229.0,12.22,12.33,47.59359,-54.27349
2022-11-08 02:34:00+00:00,226.0,9.66,222.0,11.37,12.33,47.59359,-54.27349
2022-11-08 02:44:00+00:00,230.0,8.18,226.0,10.02,12.33,47.59359,-54.27349
2022-11-08 02:54:00+00:00,232.0,8.52,234.0,9.59,12.33,47.59359,-54.27349
2022-11-08 03:04:00+00:00,232.0,8.12,228.0,9.37,12.33,47.59359,-54.27349
2022-11-08 03:14:00+00:00,257.0,6.61,257.0,7.38,12.33,47.59359,-54.27349
2022-11-08 03:24:00+00:00,256.0,6.46,260.0,7.65,12.33,47.59359,-54.27349
2022-11-08 03:34:00+00:00,250.0,6.92,255.0,8.38,12.33,47.59359,-54.27349
2022-11-08 03:44:00+00:00,266.0,7.53,265.0,8.82,12.33,47.59359,-54.27349
2022-11-08 03:54:00+00:00,262.0,7.46,259.0,11.1,12.33,47.59359,-54.27349
2022-11-08 04:04:00+00:00,264.0,10.74,264.0,12.61,12.33,47.59359,-54.27349
2022-11-08 04:14:00+00:00,273.0,10.55,278.0,12.83,12.25,47.59359,-54.27349
2022-11-08 04:24:00+00:00,267.0,11.31,273.0,13.54,12.25,47.59359,-54.27349
2022-11-08 04:34:00+00:00,268.0,9.19,281.0,10.59,12.25,47.59359,-54.27349
2022-11-08 04:44:00+00:00,275.0,11.37,267.0,12.86,12.25,47.59359,-54.27349
2022-11-08 04:54:00+00:00,282.0,12.49,279.0,14.57,12.25,47.59359,-54.27349
2022-11-08 05:04:00+00:00,286.0,8.84,281.0,10.2,12.25,47.59359,-54.27349
2022-11-08 05:14:00+00:00,288.0,8.37,283.0,10.36,12.17,47.59359,-54.27349
2022-11-08 05:24:00+00:00,278.0,8.66,278.0,9.82,12.17,47.59359,-54.27349
2022-11-08 05:34:00+00:00,270.0,7.9,271.0,9.04,12.17,47.59359,-54.27349
2022-11-08 05:44:00+00:00,252.0,8.1,246.0,9.26,12.17,47.59359,-54.27349
2022-11-08 05:54:00+00:00,241.0,9.73,236.0,12.02,12.17,47.59359,-54.27349
2022-11-08 06:04:00+00:00,248.0,10.22,245.0,12.02,12.17,47.59359,-54.27349
2022-11-08 06:14:01+00:00,243.0,10.13,239.0,11.67,12.17,47.59359,-54.27349
2022-11-08 06:24:01+00:00,252.0,12.17,255.0,16.17,12.17,47.59359,-54.27349
2022-11-08 06:34:01+00:00,261.0,14.82,261.0,18.26,12.17,47.59359,-54.27349
2022-11-08 06:44:01+00:00,265.0,15.65,269.0,18.69,12.17,47.59359,-54.27349
2022-11-08 06:54:01+00:00,262.0,11.4,258.0,12.98,12.17,47.59359,-54.27349
2022-11-08 07:04:01+00:00,277.0,10.38,280.0,11.85,12.17,47.59359,-54.27349
2022-11-08 07:14:01+00:00,276.0,10.83,271.0,12.74,12.17,47.59359,-54.27349
2022-11-08 07:24:01+00:00,278.0,11.8,280.0,14.45,12.17,47.59359,-54.27349
2022-11-08 07:34:01+00:00,278.0,11.18,277.0,12.28,12.17,47.59359,-54.27349
2022-11-08 07:44:01+00:00,273.0,10.7,280.0,12.75,12.17,47.59359,-54.27349
2022-11-08 07:54:01+00:00,271.0,10.33,274.0,12.2,12.17,47.59359,-54.27349
2022-11-08 08:04:01+00:00,267.0,9.72,269.0,10.97,12.17,47.59359,-54.27349
2022-11-08 08:14:01+00:00,264.0,11.21,262.0,12.7,12.17,47.59359,-54.27349
2022-11-08 08:24:01+00:00,270.0,10.24,267.0,11.06,12.17,47.59359,-54.27349
2022-11-08 08:34:01+00:00,235.0,8.49,231.0,9.79,12.17,47.59359,-54.27349
2022-11-08 08:44:01+00:00,247.0,10.7,247.0,12.19,12.17,47.59359,-54.27349
2022-11-08 08:54:01+00:00,249.0,10.82,249.0,12.45,12.17,47.59359,-54.27349
2022-11-08 09:04:01+00:00,253.0,11.44,255.0,12.55,12.17,47.59359,-54.27349
2022-11-08 09:14:01+00:00,270.0,11.12,274.0,14.01,12.17,47.59359,-54.27349
2022-11-08 09:24:01+00:00,268.0,12.62,272.0,15.6,12.17,47.59359,-54.27349
2022-11-08 09:34:01+00:00,270.0,10.48,265.0,11.48,12.17,47.59359,-54.27349
2022-11-08 09:44:01+00:00,264.0,10.3,263.0,11.11,12.17,47.59359,-54.27349
2022-11-08 09:54:01+00:00,267.0,14.68,275.0,19.93,12.17,47.59359,-54.27349
2022-11-08 10:04:01+00:00,265.0,15.09,266.0,17.41,12.17,47.59359,-54.27349
2022-11-08 10:14:01+00:00,267.0,12.82,270.0,16.32,12.17,47.59359,-54.27349
2022-11-08 10:24:01+00:00,271.0,12.16,262.0,14.38,12.17,47.59359,-54.27349
2022-11-08 10:34:01+00:00,265.0,12.11,264.0,14.12,12.17,47.59359,-54.27349
2022-11-08 10:44:01+00:00,266.0,11.12,261.0,12.21,12.17,47.59359,-54.27349
2022-11-08 10:54:01+00:00,264.0,12.54,259.0,14.9,12.17,47.59359,-54.27349
2022-11-08 11:04:01+00:00,260.0,11.15,258.0,12.61,12.17,47.59359,-54.27349
2022-11-08 11:14:01+00:00,272.0,11.97,272.0,13.86,12.97,47.59359,-54.27349
2022-11-08 11:24:01+00:00,283.0,12.39,285.0,15.05,12.97,47.59359,-54.27349
2022-11-08 11:34:01+00:00,269.0,12.18,273.0,14.31,12.97,47.59359,-54.27349
2022-11-08 11:44:01+00:00,264.0,13.04,265.0,15.68,12.97,47.59359,-54.27349
2022-11-08 11:54:01+00:00,272.0,11.21,266.0,14.71,12.97,47.59359,-54.27349
2022-11-08 12:04:01+00:00,273.0,12.04,273.0,13.71,12.97,47.59359,-54.27349
2022-11-08 12:14:00+00:00,281.0,13.48,280.0,17.84,13.6,47.59359,-54.27349
2022-11-08 12:24:00+00:00,274.0,13.45,277.0,17.74,13.6,47.59359,-54.27349
2022-11-08 12:34:00+00:00,272.0,13.05,272.0,15.55,13.6,47.59359,-54.27349
2022-11-08 12:44:00+00:00,266.0,14.08,259.0,20.89,13.6,47.59359,-54.27349
2022-11-08 12:54:00+00:00,275.0,15.04,269.0,18.56,13.6,47.59359,-54.27349
2022-11-08 13:04:00+00:00,269.0,11.34,276.0,14.81,13.6,47.59359,-54.27349
2022-11-08 13:14:00+00:00,274.0,14.43,277.0,17.31,14.16,47.59359,-54.27349
2022-11-08 13:24:00+00:00,273.0,13.62,273.0,16.43,14.16,47.59359,-54.27349
2022-11-08 13:34:00+00:00,274.0,15.62,277.0,21.98,14.16,47.59359,-54.27349
2022-11-08 13:44:00+00:00,275.0,13.4,277.0,15.57,14.16,47.59359,-54.27349
2022-11-08 13:54:00+00:00,274.0,16.13,271.0,21.52,14.16,47.59359,-54.27349
2022-11-08 14:04:00+00:00,286.0,16.9,290.0,22.82,14.16,47.59359,-54.27349
2022-11-08 14:14:01+00:00,271.0,15.76,260.0,21.2,13.53,47.59359,-54.27349
2022-11-08 14:24:01+00:00,283.0,15.47,274.0,17.7,13.53,47.59359,-54.27349
2022-11-08 14:34:01+00:00,280.0,13.31,280.0,16.89,13.53,47.59359,-54.27349
2022-11-08 14:44:01+00:00,282.0,14.27,284.0,17.22,13.53,47.59359,-54.27349
2022-11-08 14:54:01+00:00,287.0,15.43,274.0,20.52,13.53,47.59359,-54.27349
2022-11-08 15:04:01+00:00,279.0,17.49,281.0,22.24,13.53,47.59359,-54.27349
2022-11-08 15:14:00+00:00,280.0,14.31,284.0,16.41,14.56,47.59359,-54.27349
2022-11-08 15:24:00+00:00,276.0,14.61,284.0,17.13,14.56,47.59359,-54.27349
2022-11-08 15:34:00+00:00,279.0,14.63,286.0,17.82,14.56,47.59359,-54.27349
2022-11-08 15:44:00+00:00,271.0,16.06,267.0,21.86,14.56,47.59359,-54.27349
2022-11-08 15:54:00+00:00,275.0,15.6,278.0,21.87,14.56,47.59359,-54.27349
2022-11-08 16:04:00+00:00,266.0,13.86,261.0,16.6,14.56,47.59359,-54.27349
2022-11-08 16:14:00+00:00,263.0,15.3,261.0,21.43,14.0,47.59359,-54.27349
2022-11-08 16:24:00+00:00,271.0,16.38,269.0,21.41,14.0,47.59359,-54.27349
2022-11-08 16:34:00+00:00,281.0,11.74,276.0,13.2,14.0,47.59359,-54.27349
2022-11-08 16:44:00+00:00,282.0,14.09,286.0,16.94,14.0,47.59359,-54.27349
2022-11-08 16:54:00+00:00,271.0,16.09,265.0,21.4,14.0,47.59359,-54.27349
2022-11-08 17:04:00+00:00,275.0,15.88,275.0,21.62,14.0,47.59359,-54.27349
2022-11-08 17:14:01+00:00,273.0,14.65,280.0,20.22,13.6,47.59359,-54.27349
2022-11-08 17:24:01+00:00,282.0,16.09,283.0,21.59,13.6,47.59359,-54.27349
2022-11-08 17:34:01+00:00,285.0,13.69,292.0,16.12,13.6,47.59359,-54.27349
2022-11-08 17:44:01+00:00,270.0,11.88,270.0,14.65,13.6,47.59359,-54.27349
2022-11-08 17:54:01+00:00,283.0,12.47,285.0,15.31,13.6,47.59359,-54.27349
2022-11-08 18:04:01+00:00,283.0,13.86,282.0,16.4,13.6,47.59359,-54.27349
2022-11-08 18:14:01+00:00,280.0,13.45,286.0,15.91,14.32,47.59359,-54.27349
2022-11-08 18:24:01+00:00,265.0,13.72,263.0,14.71,14.32,47.59359,-54.27349
2022-11-08 18:34:01+00:00,264.0,12.68,265.0,14.78,14.32,47.59359,-54.27349
2022-11-08 18:44:01+00:00,269.0,12.92,269.0,14.99,14.32,47.59359,-54.27349
2022-11-08 18:54:01+00:00,273.0,13.4,268.0,15.33,14.32,47.59359,-54.27349
2022-11-08 19:04:01+00:00,276.0,12.8,276.0,15.13,14.32,47.59359,-54.27349
2022-11-08 19:14:00+00:00,283.0,12.97,282.0,15.3,13.68,47.59359,-54.27349
2022-11-08 19:24:00+00:00,283.0,15.15,282.0,21.94,13.68,47.59359,-54.27349
2022-11-08 19:34:00+00:00,285.0,13.43,289.0,15.86,13.68,47.59359,-54.27349
2022-11-08 19:44:00+00:00,282.0,13.66,281.0,16.61,13.68,47.59359,-54.27349
2022-11-08 19:54:00+00:00,284.0,14.74,279.0,20.25,13.68,47.59359,-54.27349
2022-11-08 20:04:00+00:00,292.0,14.25,300.0,16.77,13.68,47.59359,-54.27349
2022-11-08 20:14:00+00:00,291.0,14.32,297.0,16.15,12.97,47.59359,-54.27349
2022-11-08 20:24:00+00:00,286.0,13.82,288.0,15.64,12.97,47.59359,-54.27349
2022-11-08 20:34:00+00:00,286.0,12.93,290.0,15.9,12.97,47.59359,-54.27349
2022-11-08 20:44:00+00:00,288.0,12.89,291.0,16.09,12.97,47.59359,-54.27349
2022-11-08 20:54:00+00:00,289.0,10.59,284.0,14.53,12.97,47.59359,-54.27349
2022-11-08 21:04:00+00:00,290.0,15.34,285.0,20.15,12.97,47.59359,-54.27349
2022-11-08 21:14:00+00:00,289.0,14.19,291.0,16.07,12.57,47.59359,-54.27349
2022-11-08 21:24:00+00:00,311.0,12.09,298.0,16.62,12.57,47.59359,-54.27349
2022-11-08 21:34:00+00:00,292.0,12.83,292.0,15.83,12.57,47.59359,-54.27349
2022-11-08 21:44:00+00:00,285.0,12.87,281.0,15.01,12.57,47.59359,-54.27349
2022-11-08 21:54:00+00:00,298.0,9.91,300.0,14.77,12.57,47.59359,-54.27349
2022-11-08 22:04:00+00:00,286.0,12.33,289.0,15.12,12.57,47.59359,-54.27349
2022-11-08 22:14:00+00:00,286.0,9.03,280.0,14.32,12.49,47.59359,-54.27349
2022-11-08 22:24:00+00:00,295.0,10.36,279.0,14.14,12.49,47.59359,-54.27349
2022-11-08 22:34:00+00:00,284.0,12.92,288.0,15.26,12.49,47.59359,-54.27349
2022-11-08 22:44:00+00:00,306.0,10.55,293.0,15.12,12.49,47.59359,-54.27349
2022-11-08 22:54:00+00:00,298.0,12.62,295.0,16.03,12.49,47.59359,-54.27349
2022-11-08 23:04:00+00:00,319.0,8.85,301.0,12.38,12.49,47.59359,-54.27349
2022-11-08 23:14:00+00:00,310.0,10.07,298.0,13.73,12.49,47.59359,-54.27349
2022-11-08 23:24:00+00:00,318.0,8.77,320.0,10.49,12.49,47.59359,-54.27349
2022-11-08 23:34:00+00:00,310.0,10.79,303.0,16.02,12.49,47.59359,-54.27349
2022-11-08 23:44:00+00:00,323.0,10.4,312.0,12.41,12.49,47.59359,-54.27349
2022-11-08 23:54:00+00:00,327.0,9.51,338.0,11.63,12.49,47.59359,-54.27349
